[[{"header":{"parameterUnit":"m.s-1","parameterCategory":1,"la1":30.2991,"la2":30.254,"lo1":-89.0895,"lo2":-89.0444,"dy":0.0017,"dx":0.0017,"nx":28,"ny":28,"refTime":"2025-03-17T21:00:00:Z","depth":0,"parameterNumber":2,"parameterNumberName":"U-component_of_WINDS"},"data":[0,0,0,0,0,0,0,0,0,0,0,0,0,0,0,0,0,0,0,0,0,0,0,0,0,0,0,0,0,0,0,0,0,0,0,0,0,0,0,0,0,0,0,0,0,0,0,0,0,0,0,0,0,0,0,0,0,0,-2.8505,-2.8506,0,-2.8583,-2.8584,-2.8585,-2.8595,-2.8595,-2.8594,-2.8593,-2.8674,-2.8677,-2.868,0,0,0,0,0,0,0,0,0,0,0,0,0,-2.8366,-2.8369,-2.8505,-2.8506,-2.8507,-2.8583,-2.8584,-2.8585,-2.8595,-2.8595,-2.8594,-2.8593,-2.8673,-2.8677,-2.868,0,0,0,0,0,0,0,0,0,0,0,0,0,-2.8434,-2.837,-2.8505,-2.8521,-2.8523,-2.8583,-2.8584,-2.8586,-2.8596,-2.8594,-2.8593,-2.8592,-2.8672,-2.8677,-2.8681,-2.873,0,0,-2.8694,-2.8696,0,0,0,0,0,0,0,0,-2.843,-2.8439,-2.8518,-2.852,-2.8523,-2.8578,-2.8565,-2.8634,-2.8596,-2.8568,-2.8593,-2.8592,-2.8643,-2.865,-2.8667,-2.8734,-2.8737,-2.8694,-2.8697,-2.8699,-2.87,0,0,0,0,0,0,0,-2.8425,-2.8436,-2.8536,-2.8519,-2.8522,-2.8525,-2.8534,-2.8578,-2.8611,-2.857,-2.8571,-2.8581,-2.8645,-2.8663,-2.8669,-2.8738,-2.8694,-2.8698,-2.8701,-2.8702,-2.8851,-2.8852,0,0,0,0,0,0,-2.8417,-2.8432,-2.8533,-2.8538,-2.8473,-2.8529,-2.8538,-2.8562,-2.8611,-2.8617,-2.8581,-2.8581,-2.8656,-2.8664,-2.8672,-2.8733,-2.8699,-2.8703,-2.8705,-2.885,-2.8851,-2.8853,0,0,0,0,0,0,-2.8414,-2.8426,-2.853,-2.8485,-2.8499,-2.8532,-2.8559,-2.8564,-2.8582,-2.8619,-2.8625,-2.8594,-2.8656,-2.8666,-2.8716,-2.8736,-2.8705,-2.8709,-2.8848,-2.885,-2.8852,-2.8856,0,0,0,0,0,0,-2.841,-2.8425,-2.8443,-2.8486,-2.8501,-2.8572,-2.856,-2.8566,-2.8589,-2.8589,-2.8632,-2.8639,-2.8656,-2.8709,-2.872,-2.8742,-2.8712,-2.8846,-2.8849,-2.8851,-2.8854,-2.8858,-2.8861,0,0,0,0,0,-2.8405,-2.8441,-2.8444,-2.8456,-2.8524,-2.8573,-2.8582,-2.86,-2.8591,-2.861,-2.8634,-2.8637,-2.8733,-2.8714,-2.8726,-2.875,-2.8845,-2.8848,-2.8851,-2.8852,-2.8857,-2.8861,0,0,0,0,0,0,-2.84,-2.8447,-2.8451,-2.8501,-2.8533,-2.8574,-2.8599,-2.8604,-2.864,-2.8638,-2.866,-2.867,-2.8719,-2.874,-2.8718,-2.8801,-2.8788,-2.8794,-2.8785,-2.879,-2.8793,-2.8786,-2.8716,0,0,0,0,0,-2.8405,-2.844,-2.8479,-2.852,-2.8536,-2.8565,-2.8586,-2.8598,-2.8632,-2.8646,-2.8673,-2.8706,-2.8744,-2.8768,-2.8805,-2.8858,-2.8868,-2.888,-2.8884,-2.8886,-2.889,-2.8921,-2.8927,-2.8863,-2.8863,-2.8863,0,0,-2.8415,-2.8445,-2.8465,-2.852,-2.8545,-2.8582,-2.8576,-2.8614,-2.8641,-2.8652,-2.87,-2.8722,-2.8761,-2.8812,-2.8836,-2.8831,-2.8911,-2.889,-2.8892,-2.8895,-2.8925,-2.8931,-2.8936,-2.8865,-2.8865,-2.8864,0,0,-2.8452,-2.8478,-2.8515,-2.8541,-2.8581,-2.86,-2.8609,-2.8651,-2.8665,-2.8715,-2.8723,-2.8757,-2.8821,-2.8849,-2.8871,-2.8921,-2.8926,-2.8933,-2.895,-2.898,-2.8985,-2.899,-2.9007,-2.9014,-2.8937,-2.8937,-2.8937,0,-2.8459,-2.8513,-2.8533,-2.8571,-2.8595,-2.8607,-2.8646,-2.8671,-2.872,-2.8737,-2.8731,-2.8813,-2.884,-2.8898,-2.8911,-2.8929,-2.894,-2.8927,-2.8983,-2.8987,-2.8992,-2.9009,-2.9016,-2.8938,-2.8938,-2.8938,-2.8938,0,-2.852,-2.8558,-2.8584,-2.8631,-2.8658,-2.8697,-2.8723,-2.8749,-2.8759,-2.878,-2.8831,-2.8864,-2.8908,-2.8924,-2.8934,-2.8984,-2.898,-2.8978,-2.8965,-2.8998,-2.9015,-2.9022,-2.8939,-2.8939,-2.8938,-2.8938,0,0,-2.8553,-2.8613,-2.8622,-2.8644,-2.869,-2.872,-2.876,-2.8803,-2.8825,-2.886,-2.8894,-2.8949,-2.8948,-2.8974,-2.8988,-2.9014,-2.9052,-2.9009,-2.901,-2.9015,-2.911,-2.9111,-2.9118,-2.9056,-2.9057,-2.9059,-2.9107,0,-2.8595,-2.8664,-2.8685,-2.8744,-2.878,-2.8793,-2.8828,-2.886,-2.8881,-2.8915,-2.8939,-2.8978,-2.8974,-2.8989,-2.9016,-2.9042,-2.9071,-2.9039,-2.9088,-2.909,-2.9076,-2.9126,-2.9127,-2.917,-2.9114,-2.9115,-2.9115,0,-2.8652,-2.8687,-2.875,-2.8792,-2.8808,-2.8839,-2.8881,-2.8913,-2.8951,-2.8965,-2.8995,-2.9007,-2.905,-2.9037,-2.9097,-2.9075,-2.9097,-2.9113,-2.9115,-2.912,-2.9103,-2.9131,-2.9185,-2.9191,-2.9126,-2.9125,-2.9124,0,-2.8669,-2.8733,-2.8779,-2.8798,-2.8849,-2.887,-2.8893,-2.893,-2.8955,-2.8992,-2.9009,-2.9051,-2.9074,-2.9107,-2.9131,-2.9119,-2.9189,-2.9178,-2.9202,-2.9202,-2.9215,-2.9213,-2.9272,-2.9231,-2.9231,-2.9231,-2.9231,0,-2.8712,-2.875,-2.8788,-2.8816,-2.8859,-2.8883,-2.8926,-2.8949,-2.8982,-2.9016,-2.9031,-2.9062,-2.9093,-2.9129,-2.9148,-2.9195,-2.9206,-2.9219,-2.9223,-2.9216,-2.9215,-2.923,-2.9227,-2.9233,-2.9232,-2.9232,-2.9232,0,-2.8738,-2.8765,-2.8816,-2.886,-2.8873,-2.8902,-2.8941,-2.897,-2.8992,-2.9035,-2.9046,-2.9082,-2.9125,-2.9153,-2.9208,-2.9222,-2.9273,-2.9277,-2.926,-2.9262,-2.9285,-2.9282,-2.9354,-2.9365,-2.9317,-2.9318,-2.9318,0,-2.8763,-2.8793,-2.8841,-2.8864,-2.8886,-2.8924,-2.895,-2.8976,-2.9003,-2.9049,-2.9073,-2.9117,-2.9154,-2.9223,-2.9254,-2.9297,-2.9302,-2.9324,-2.9308,-2.9301,-2.9302,-2.9299,-2.9302,-2.9326,-2.9327,-2.9327,-2.9327,0,-2.8805,-2.8817,-2.8854,-2.8895,-2.8926,-2.896,-2.8994,-2.9013,-2.9045,-2.9075,-2.9119,-2.9148,-2.9205,-2.9249,-2.9295,-2.932,-2.9329,-2.9332,-2.934,-2.9333,-2.9322,-2.9328,-2.9266,-2.933,-2.933,-2.9329,-2.9329,-2.9329,-2.8831,-2.8858,-2.8896,-2.8937,-2.8966,-2.8998,-2.9027,-2.9054,-2.9091,-2.9139,-2.9153,-2.9199,-2.9239,-2.9301,-2.9327,-2.9365,-2.9362,-2.9373,-2.9376,-2.9378,-2.9378,-2.9317,-2.9373,-2.9373,-2.9373,-2.9373,-2.9373,0,-2.8874,-2.8899,-2.8936,-2.8984,-2.9016,-2.9023,-2.9062,-2.9088,-2.9129,-2.9165,-2.9201,-2.9253,-2.9296,-2.9332,-2.9377,-2.9401,-2.9406,-2.9411,-2.9409,-2.9415,-2.9378,-2.9367,-2.9406,-2.9406,-2.9406,-2.9406,-2.9406,-2.9406,-2.8899,-2.8946,-2.8963,-2.9024,-2.905,-2.9095,-2.9117,-2.9147,-2.9176,-2.9233,-2.9269,-2.9292,-2.9328,-2.9376,-2.9417,-2.9426,-2.9442,-2.9447,-2.9457,-2.9421,-2.9418,-2.9414,-2.9403,-2.945,-2.945,-2.9491,-2.9491,-2.9491]},{"header":{"parameterUnit":"m.s-1","parameterCategory":1,"la1":30.2991,"la2":30.254,"lo1":-89.0895,"lo2":-89.0444,"dy":0.0017,"dx":0.0017,"nx":28,"ny":28,"refTime":"2025-03-17T21:00:00:Z","depth":0,"parameterNumber":3,"parameterNumberName":"V-component_of_WINDS"},"data":[0,0,0,0,0,0,0,0,0,0,0,0,0,0,0,0,0,0,0,0,0,0,0,0,0,0,0,0,0,0,0,0,0,0,0,0,0,0,0,0,0,0,0,0,0,0,0,0,0,0,0,0,0,0,0,0,0,0,5.2249,5.2249,0,5.2269,5.227,5.227,5.2272,5.2271,5.2271,5.2271,5.229,5.2291,5.2292,0,0,0,0,0,0,0,0,0,0,0,0,0,5.221,5.221,5.2249,5.2249,5.2249,5.2269,5.227,5.227,5.2272,5.2271,5.2271,5.2271,5.229,5.2291,5.2292,0,0,0,0,0,0,0,0,0,0,0,0,0,5.2228,5.2211,5.2249,5.2252,5.2253,5.2269,5.227,5.227,5.2272,5.2271,5.2271,5.2271,5.229,5.2291,5.2292,5.2305,0,0,5.2295,5.2295,0,0,0,0,0,0,0,0,5.2227,5.2229,5.2252,5.2252,5.2253,5.2268,5.2263,5.2282,5.2272,5.2264,5.2271,5.2271,5.2283,5.2284,5.2289,5.2306,5.2307,5.2295,5.2296,5.2296,5.2297,0,0,0,0,0,0,0,5.2226,5.2229,5.2257,5.2252,5.2253,5.2253,5.2255,5.2267,5.2275,5.2265,5.2265,5.2268,5.2283,5.2288,5.2289,5.2307,5.2295,5.2296,5.2297,5.2297,5.2338,5.2338,0,0,0,0,0,0,5.2224,5.2227,5.2256,5.2257,5.2239,5.2254,5.2256,5.2263,5.2275,5.2277,5.2268,5.2268,5.2286,5.2288,5.229,5.2307,5.2296,5.2297,5.2298,5.2337,5.2338,5.2338,0,0,0,0,0,0,5.2223,5.2226,5.2255,5.2243,5.2246,5.2255,5.2262,5.2264,5.2269,5.2277,5.2279,5.2272,5.2286,5.2289,5.2302,5.2308,5.2298,5.2299,5.2337,5.2337,5.2338,5.2342,0,0,0,0,0,0,5.2222,5.2226,5.2231,5.2243,5.2247,5.2267,5.2263,5.2264,5.2271,5.2271,5.2281,5.2282,5.2286,5.23,5.2303,5.2309,5.23,5.2336,5.2337,5.2338,5.2341,5.2342,5.2343,0,0,0,0,0,5.222,5.223,5.2231,5.2235,5.2254,5.2267,5.2269,5.2274,5.2271,5.2277,5.2282,5.2282,5.2307,5.2302,5.2305,5.2311,5.2336,5.2337,5.2338,5.234,5.2342,5.2343,0,0,0,0,0,0,5.2218,5.2232,5.2233,5.2247,5.2256,5.2267,5.2274,5.2275,5.2285,5.2284,5.2289,5.2291,5.2304,5.2309,5.2303,5.2326,5.2321,5.2323,5.2322,5.2324,5.2325,5.2323,5.23,0,0,0,0,0,5.2219,5.223,5.2241,5.2252,5.2257,5.2265,5.2271,5.2274,5.2283,5.2287,5.2293,5.2302,5.2312,5.2318,5.2327,5.2342,5.2345,5.2348,5.2349,5.235,5.2352,5.2361,5.2363,5.2341,5.2341,5.2341,0,0,5.2222,5.2231,5.2237,5.2252,5.226,5.227,5.2268,5.2279,5.2287,5.2288,5.2301,5.2307,5.2316,5.2331,5.2337,5.2335,5.2359,5.2352,5.2352,5.2353,5.2362,5.2364,5.2366,5.2342,5.2342,5.2342,0,0,5.2232,5.2239,5.225,5.2258,5.227,5.2275,5.2278,5.229,5.2294,5.2308,5.2309,5.2319,5.2335,5.2343,5.2349,5.2364,5.2364,5.2367,5.2373,5.2382,5.2384,5.2385,5.2391,5.2394,5.2368,5.2368,5.2368,0,5.2233,5.2249,5.2255,5.2267,5.2274,5.2278,5.2289,5.2296,5.231,5.2315,5.2312,5.2335,5.2341,5.2358,5.2362,5.2367,5.237,5.2365,5.2383,5.2385,5.2386,5.2392,5.2394,5.2368,5.2368,5.2368,5.2368,0,5.2251,5.2262,5.227,5.2285,5.2293,5.2304,5.2312,5.232,5.2323,5.2328,5.2343,5.2352,5.2364,5.2368,5.237,5.2385,5.2384,5.2382,5.2378,5.2389,5.2394,5.2396,5.2369,5.2369,5.2369,5.2369,0,0,5.2258,5.2278,5.2281,5.2288,5.2303,5.2311,5.2323,5.2336,5.2343,5.2353,5.2363,5.2378,5.2378,5.2385,5.2388,5.2396,5.2409,5.2393,5.2394,5.2396,5.2427,5.2428,5.2431,5.2409,5.241,5.241,5.2426,0,5.227,5.2292,5.2299,5.2318,5.2329,5.2333,5.2344,5.2354,5.236,5.237,5.2377,5.2388,5.2386,5.239,5.2398,5.2405,5.2415,5.2404,5.2419,5.2419,5.2416,5.2433,5.2434,5.2449,5.2428,5.2429,5.2429,0,5.2286,5.2298,5.2318,5.2333,5.2338,5.2347,5.2361,5.2371,5.2382,5.2386,5.2395,5.2398,5.2411,5.2406,5.2425,5.2417,5.2424,5.2428,5.2429,5.243,5.2425,5.2436,5.2454,5.2456,5.2433,5.2432,5.2432,0,5.229,5.2311,5.2327,5.2333,5.235,5.2357,5.2364,5.2376,5.2384,5.2395,5.2401,5.2413,5.242,5.243,5.2436,5.2432,5.2454,5.2449,5.2458,5.2458,5.2462,5.2462,5.2482,5.2466,5.2466,5.2466,5.2466,0,5.2303,5.2315,5.2329,5.2338,5.2353,5.2361,5.2375,5.2382,5.2393,5.2404,5.2408,5.2418,5.2426,5.2437,5.2442,5.2457,5.246,5.2464,5.2465,5.2463,5.2463,5.2467,5.2467,5.2466,5.2466,5.2466,5.2466,0,5.2309,5.2319,5.2336,5.2352,5.2357,5.2366,5.238,5.2389,5.2396,5.241,5.2414,5.2425,5.2439,5.2446,5.2463,5.2467,5.2483,5.2484,5.248,5.248,5.2488,5.2488,5.2513,5.2517,5.2498,5.2498,5.2498,0,5.2317,5.2327,5.2344,5.2353,5.2361,5.2373,5.2382,5.2391,5.24,5.2415,5.2423,5.2437,5.2449,5.2471,5.248,5.2493,5.2494,5.2502,5.2496,5.2495,5.2495,5.2494,5.2496,5.2503,5.2503,5.2503,5.2503,0,5.2329,5.2334,5.2347,5.2362,5.2373,5.2385,5.2397,5.2403,5.2414,5.2424,5.2439,5.2449,5.2467,5.2481,5.2495,5.2502,5.2505,5.2505,5.2508,5.2506,5.2504,5.2506,5.2483,5.2504,5.2504,5.2504,5.2504,5.2504,5.2336,5.2346,5.2361,5.2375,5.2386,5.2398,5.2408,5.2417,5.243,5.2446,5.2451,5.2467,5.2479,5.2499,5.2507,5.2519,5.2518,5.2521,5.2522,5.2523,5.2524,5.2502,5.2522,5.2522,5.2522,5.2522,5.2522,0,5.2349,5.2359,5.2373,5.2391,5.2403,5.2406,5.242,5.2429,5.2443,5.2456,5.2468,5.2486,5.25,5.2511,5.2526,5.2534,5.2535,5.2537,5.2537,5.2538,5.2524,5.252,5.2536,5.2536,5.2536,5.2536,5.2536,5.2536,5.2357,5.2374,5.2381,5.2404,5.2414,5.243,5.2438,5.2449,5.2459,5.2479,5.2492,5.25,5.2512,5.2528,5.2541,5.2544,5.2549,5.2551,5.2555,5.2541,5.2539,5.2538,5.2534,5.2552,5.2552,5.2568,5.2568,5.2568]}]]